map of YAI home
YAI - Airport
Location
City:  Chillan, Bío Bío, Chile
Name:General Bernardo O'Higgins Airport
ICAO:SCCH
IATA:YAI

Details
Type:Airport (Aerodrome, Airfield)
Use:Public/Civil
Latitude:36°34'58"S (-36.582777)
Longitude:72°01'54"W (-72.031666)
Elevation:499 ft (152 m)
Variation:4.54°E (WMM2015v2 magnetic declination)
-0.15° annual change
Runways:1
Longest:5741 × 98 ft (1750 × 30 m), paved

Time
Time Zone:UTC-4 (DST-3)
Local Time:

Weather
METAR:SCCH 041400Z 35005KT CAVOK 22/14 Q1011

Related Locations
Nearby:
Farthest:IQN: 12373 mi / 19913 km
Qingyang (Xifengzhen), 62, CN

Find:

   beyond  
but within

Other Information
Maps:
NOTAMs:
Links:
Sources:

  
  • flag of Chile
  • flag of Bío Bío
  

Sectional Chart

Flight Planning
at skyvector.com

Satellite Image

Google Maps Satellite view

 

Copyright © 2004-2019 Karl L. Swartz. All rights reserved.
The Great Circle Mapper name and logo are trademarks of the Great Circle Mapper.
All other trademarks mentioned herein belong to their respective owners.
Please see credits for attibutions and further copyright information.

  Follow gcmap on Facebook Follow gcmap on Twitter GCmap on LinkedIn

hCard Microformat

Geo Microformat